Regional Weather Roundup
Issued by NWS

Home | Current Version | Previous Version | Graphics & Text | Print | Product List | Glossary On
Versions: 1 2 3 4 5 6 7 8 9 10 11 12 13 14 15 16 17 18 19 20 21 22 23 24 25 26 27 28 29 30 31 32 33 34 35 36 37 38 39 40 41 42 43 44 45 46 47 48 49 50
000
ASUS43 KBIS 061420
RWRND

NORTH DAKOTA REGIONAL WEATHER ROUNDUP
NATIONAL WEATHER SERVICE BISMARCK ND
900 AM CDT WED MAY 06 2015

NOTE: "FAIR" INDICATES FEW OR NO CLOUDS BELOW 12,000 FEET WITH NO
SIGNIFICANT WEATHER AND/OR OBSTRUCTIONS TO VISIBILITY.


NDZ001>003-009>011-017-061500-
NORTHWEST NORTH DAKOTA

CITY           SKY/WX    TMP DP  RH WIND       PRES   REMARKS
WILLISTON      PTSUNNY   60  53  77 S12       29.70R
MINOT          CLOUDY    60  56  86 SE15      29.76F
MINOT AFB      CLOUDY    62  62 100 S18       29.75S
$$

NDZ018>021-031>035-040>046-061500-
SOUTHWEST NORTH DAKOTA

CITY           SKY/WX    TMP DP  RH WIND       PRES   REMARKS
BISMARCK       LGT RAIN  59  58  96 SE10      29.78F FOG
DICKINSON      CLOUDY    57  54  89 SE16      29.73S
GARRISON         N/A     59  57  93 S15       29.77S
HETTINGER ARPT LGT RAIN  56  53  90 SE10      29.75F FOG
$$

NDZ004>008-012>016-024-026-027-054-061500-
NORTHEAST NORTH DAKOTA

CITY           SKY/WX    TMP DP  RH WIND       PRES   REMARKS
GRAND FORKS    CLOUDY    60  56  86 S18G25    29.90F
GRND FRKS AFB  CLOUDY    59  55  85 S15G22    29.90S
DEVILS LAKE    CLOUDY    59  54  82 S13       29.85F
$$

NDZ022-023-025-028>030-036>039-047>053-061500-
SOUTHEAST NORTH DAKOTA

CITY           SKY/WX    TMP DP  RH WIND       PRES   REMARKS
FARGO          LGT RAIN  60  55  83 SE20G30   29.91F
JAMESTOWN      LGT RAIN  57  55  93 SE12      29.85F FOG
$$



USA.gov is the U.S. government's official web portal to all federal, state and local government web resources and services.